Flag for Austria Weather past 2 weeks in Stockerau, Lower Austria, Austria

39 °F

Partly sunny.

Feels Like: 34 °F
Forecast: 27 / 40 °F
Wind: 8 mph from Northwest

Location: Tulln Airport

Current Time: Nov 27, 2015 at 10:02:07 AM

Latest Report: Nov 27, 2015 at 8:50 AM

Visibility: 11 mi

Pressure: 30.09 "Hg

Humidity: 81%

Dew point: 34 °F

Location of StockerauLocation

Historic Weather in Stockerau — Graph


Stockerau temperature yesterday

Maximum temperature yesterday: 36 °F (at 2:50 PM)
Minimum temperature yesterday: 30 °F (at 4:50 AM)
Average temperature yesterday: 33 °F

Past Weeks' High & Low Weather Summary

High66 °F (Nov 18, 11:50 AM)100% (Nov 13, 5:50 AM)30.39 "Hg (Nov 13, 5:50 AM)
Low23 °F (Nov 25, 4:50 AM)43% (Nov 18, 11:50 AM)29.42 "Hg (Nov 20, 7:50 PM)
Average46 °F77%29.99 "Hg
* Reported Nov 12 8:20 AM — Nov 27 8:50 AM, Stockerau, Weather by CustomWeather, © 2015

Note: Actual official high and low records may vary slightly from our data, if they occured in-between our weather recording intervals... More about our weather records


Stockerau weather history for previous 24 hours

Time TempWeatherWind HumidityBarometerVisibility
8:50 AM
Fri, Nov 27
39 °FPartly sunny.8 mph81%30.09 "Hg11 mi
7:50 AM41 °FPartly sunny.8 mph76%30.09 "Hg11 mi
6:50 AM37 °FPassing clouds.9 mph87%30.12 "Hg9 mi
5:50 AM37 °FPassing clouds.8 mph87%30.09 "Hg7 mi
9:50 PM
Thu, Nov 26
36 °FPassing clouds.8 mph93%30.07 "Hg4 mi
8:50 PM36 °FPassing clouds.7 mph93%30.07 "Hg4 mi
7:50 PM36 °FPassing clouds.8 mph93%30.04 "Hg4 mi
6:50 PM36 °FPassing clouds.8 mph93%30.01 "Hg4 mi
5:50 PM36 °FLight rain. Passing clouds.8 mph93%30.01 "Hg4 mi
4:50 PM34 °FLight rain. Passing clouds.7 mph100%29.98 "Hg4 mi
3:50 PM34 °FLight rain. Partly sunny.9 mph100%29.95 "Hg4 mi
3:20 PM36 °FLight rain. Partly sunny.9 mph93%29.95 "Hg4 mi
2:50 PM36 °FLight rain. Broken clouds.8 mph93%29.92 "Hg4 mi
1:50 PM34 °FLight rain. Fog.7 mph100%29.92 "Hg3 mi
12:50 PM34 °FLight snow. Fog.7 mph93%29.89 "Hg2 mi
12:20 PM34 °FLight snow. Fog.9 mph93%29.89 "Hg1 mi
11:50 AM34 °FLight snow. Fog.7 mph93%29.89 "Hg1 mi
10:50 AM34 °FLight snow. Fog.6 mph93%29.86 "Hg1 mi
10:20 AM32 °FLight snow. Ice fog.5 mph100%29.86 "Hg1 mi
Weather by CustomWeather, © 2015

See weather overviewHow to use our weather pages